Location: Balaclava NSW 2575, Australia
(34.4510°S, 150.4953°E)
Time: 23:51:00
(UTC+10:00)

XW-2C - Pass Details

Date: 06 August 2021
Orbit: 505 x 524 km, 97.5° (Epoch: 26 September)

Event Time Altitude Azimuth Distance (km) Brightness Sun altitude
Rises 18:10:58 0° 175° (S) 2,658 ? -10.7°
Reaches altitude 10° 18:13:08 10° 180° (S) 1,759 ? -11.1°
Maximum altitude 18:16:48 49° 255° (WSW) 675 ? -11.9°
Drops below altitude 10° 18:20:24 10° 330° (NNW) 1,726 ? -12.6°
Sets 18:22:30 0° 335° (NNW) 2,600 ? -13.0°
